ICECUBE

Last updated on Fri Oct 05 2018 00:00:45 GMT+0000 (Coordinated Universal Time)

1 42705U 98067LN 18276.06534946 .17607533 12691-4 36390-3 0 9998 2 42705 51.6425 140.2579 0007226 336.1768 24.0803 16.46477481 79261

Satellite not in orbit